Regional Weather Roundup
Issued by NWS

Home | Current Version | Previous Version | Graphics & Text | Print | Product List | Glossary On
Versions: 1 2 3 4 5 6 7 8 9 10 11 12 13 14 15 16 17 18 19 20 21 22 23 24 25 26 27 28 29 30 31 32 33 34 35 36 37 38 39 40 41 42 43 44 45 46 47 48 49 50
000
ASUS43 KMKX 052000
RWRWI

WISCONSIN REGIONAL WEATHER ROUNDUP
NATIONAL WEATHER SERVICE MILWAUKEE/SULLIVAN WI
300 PM CDT SUN JUL 05 2015

NOTE: "FAIR" INDICATES FEW OR NO CLOUDS BELOW 12,000 FEET WITH NO
SIGNIFICANT WEATHER AND/OR OBSTRUCTIONS TO VISIBILITY.

WIZ001-002-006>008-014>016-023>028-052100-
NORTHWEST WISCONSIN

CITY           SKY/WX    TMP DP  RH WIND       PRES   REMARKS
SUPERIOR ARPT  MOSUNNY   83  68  60 S15G21    29.83F HX  86
ASHLAND        MOSUNNY   83  65  54 S13G23    29.88F HX  85
HAYWARD        MOSUNNY   81  63  54 S13       29.91F HX  82
SIREN          MOSUNNY   85  64  49 S16       29.89S HX  86
CUMBERLAND     PTSUNNY   79  63  57 S16       29.93F HX  80
RICE LAKE      PTSUNNY   81  62  51 S13G18    29.94F HX  82
CHETEK         PTSUNNY   82  65  57 SE10G18   29.94S HX  84
LADYSMITH      PTSUNNY   81  62  51 S14       29.98R HX  82
EAU CLAIRE     NOT AVBL
MENOMONIE      PTSUNNY   82  65  56 S12G20    29.94R HX  84
NEW RICHMOND   MOSUNNY   82  67  60 S15G21    29.91F HX  84
OSCEOLA        MOSUNNY   83  67  58 S14       29.92F HX  85
$$

WIZ003>005-009-010-017-018-052100-
NORTH CENTRAL WISCONSIN

CITY           SKY/WX    TMP DP  RH WIND       PRES   REMARKS
MANITOWISH WTR PTSUNNY   79  61  53 SW14      29.97R HX  80
ARBOR VITAE    MOSUNNY   80  60  51 S13G22    29.98R HX  81
WOODRUFF       MOSUNNY   80  60  51 S13G22    29.98R HX  81
RHINELANDER    SUNNY     82  59  45 SW14G22   30.00R HX  82
EAGLE RIVER    MOSUNNY   79  54  41 SW10G17   29.98R
LAND O LAKES   MOSUNNY   81  54  39 SW12G20   29.98S HX  81
PHILLIPS       MOSUNNY   79  61  54 SW14G20   29.96F HX  80
TOMAHAWK       MOSUNNY   80  61  51 S5        29.99S HX  81
MEDFORD        MOSUNNY   79  60  52 S13       29.99S HX  80
MERRILL        SUNNY     80  63  54 SW12G18   29.99F HX  82
$$

WIZ029-030-035-036-043>047-052100-
CENTRAL WISCONSIN

CITY           SKY/WX    TMP DP  RH WIND       PRES   REMARKS
WAUSAU         MOSUNNY   83  60  45 S15       29.97F HX  83
MOSINEE        SUNNY     79  63  57 S13G18    30.00F HX  80
MARSHFIELD     MOSUNNY   83  61  47 S15       29.98F HX  83
STEVENS POINT  MOSUNNY   80  59  48 S13G18    30.00F HX  81
WAUPACA        SUNNY     85  60  42 S8        30.01S HX  85
WAUTOMA        NOT AVBL
WISC RAPIDS    MOSUNNY   83  60  45 SW12      29.99F HX  83
CAMP DOUGLAS   NOT AVBL
$$

WIZ011>013-019>022-031-037>040-048>050-052100-
NORTHEAST WISCONSIN

CITY           SKY/WX    TMP DP  RH WIND       PRES   REMARKS
ANTIGO         MOSUNNY   78  63  61 S12       30.02S
SHAWANO        MOSUNNY   83  60  46 SW5       30.01S HX  83
OCONTO         SUNNY     81  62  51 S13       30.00F HX  82
STURGEON BAY   SUNNY     75  63  64 S17       30.04F
GREEN BAY      SUNNY     82  62  50 SW12      30.01F HX  83
MANITOWOC      NOT AVBL
APPLETON       MOSUNNY   81  57  44 SW14      30.03S HX  81
CLINTONVILLE   SUNNY     82  59  44 S8        30.01S HX  82
OSHKOSH        MOSUNNY   82  63  52 S15G21    30.01F HX  83
$$

WIZ032>034-041-042-053>061-052100-
SOUTHWEST WISCONSIN

CITY           SKY/WX    TMP DP  RH WIND       PRES   REMARKS
LA CROSSE      PTSUNNY   85  64  49 S14       29.95S HX  86
SPARTA         MOSUNNY   85  58  40 S13       29.97F HX  84
VIROQUA        PTSUNNY   82  62  51 S12       30.00S HX  83
BOSCOBEL       MOSUNNY   85  65  51 S8        29.98F HX  86
PRAIRIE DU CHI PTSUNNY   82  62  50 S7        29.98F HX  83
PLATTEVILLE    MOSUNNY   81  65  58 S9        30.02F HX  82
$$

WIZ056-057-062-063-064-067-068-052100-
SOUTH CENTRAL WISCONSIN

CITY           SKY/WX    TMP DP  RH WIND       PRES   REMARKS
REEDSBURG      MOSUNNY   81  64  55 S12       30.00F HX  83
BARABOO/DELLS  MOSUNNY   83  61  48 SW7       30.01F HX  83
LONE ROCK      NOT AVBL
MINERAL POINT  MOSUNNY   82  63  51 S10G16    30.03F HX  83
MADISON        MOSUNNY   83  63  50 S10       30.02S HX  84
MIDDLETON      MOSUNNY   83  60  46 S8        30.03F HX  83
WATERTOWN      PTSUNNY   80  64  58 S10       30.03F HX  82
MONROE         MOSUNNY   81  63  54 S9        30.05R HX  82
JANESVILLE     MOSUNNY   82  61  47 S8        30.03F HX  83
$$

WIZ051-052-058>065-066-070>072-052100-
SOUTHEAST WISCONSIN

CITY           SKY/WX    TMP DP  RH WIND       PRES   REMARKS
MILWAUKEE      MOSUNNY   79  61  53 SE17      30.04F HX  80
WAUKESHA       MOSUNNY   79  59  50 S13       30.06S HX  80
MILWAUKEE/TIMM SUNNY     82  55  39 S9        30.04F HX  82
RACINE         SUNNY     77  58  51 S14       30.07F
BURLINGTON     SUNNY     79  61  54 S5        30.05S HX  80
KENOSHA        SUNNY     80  61  52 SE13      30.05F HX  81
FOND DU LAC    SUNNY     82  62  50 S12       30.02F HX  83
SHEBOYGAN      SUNNY     77  62  59 S14       30.04S
WEST BEND      SUNNY     81  59  47 S7        30.04S HX  81
JUNEAU         SUNNY     79  62  56 S7        30.05S HX  80
$$

LSZ147-162-052100-
LAKE SUPERIOR

STATION/POSITION TIME  TEMP    WIND        PRES    WAVE
                       AIR SEA DIR/SP/G            HT/PER
                 (UTC) (F)     (DEG/KT/KT) (MB)    (FT/S)
W MID LAKE BUOY  1850   51 40  140/  4/  6 1012.5F   0
DEVILS ISLAND    1900   74     240/  5/  6 1011.4R
SAXON HARBOR     1900   83     210/  8/ 13 1012.2S
$$

LMZ867-665-643>646-052100-
LAKE MICHIGAN

STATION/POSITION TIME  TEMP    WIND        PRES    WAVE
                       AIR SEA DIR/SP/G            HT/PER
                 (UTC) (F)     (DEG/KT/KT) (MB)    (FT/S)
CHAMBERS ISLAND  1900   78     160/  4/ 12 1016.3F
S GREEN BAY BUOY 1900   74 71  210/  8/  8 1017.7F
N MID LAKE BUOY  1850   54 49  200/ 10/ 10 1017.4R   2/ 4
NORTHPORT PIER   1900   71     140/  7/ 11 1016.6F
SISTER BAY       1944   80     160/ 15/ 19   N/A
ALGOMA LAKESHORE 1911          210/ 12/ 13   N/A
KEWAUNEE LAKESHO 1900   63     180/ 10/ 13 1016.8S
SHEBOYGAN LAKESH 1900   63     170/ 10/ 10 1017.7F
PORT WASHINGTON  1900   69     140/  4/  6 1018.3F
ATWATER BUOY     1900   65 61  140/  8/ 10 1018.8F
MILWAUKEE LAKESH 1900   65     140/ 13/ 14   N/A
KENOSHA   LAKESH 1900   68     170/  9/ 10 1017.6F
$$

TC  - TEMPERATURE IN CELSIUS
VSB - VISIBILITY IN STATUTE MILES
WCI - WIND CHILL INDEX
HX  - HEAT INDEX



USA.gov is the U.S. government's official web portal to all federal, state and local government web resources and services.